Weather History for Panama City Tyndall AFB, FL

Change the Weather History Date:

Friday, August 2, 2013

  Actual Average Record
Temperature  
Mean Temperature 82 °F -  
Max Temperature 88 °F 87 °F 91 °F (1998)
Min Temperature 75 °F 73 °F 71 °F (2002)
Cooling Degree Days 16    
Growing Degree Days 32 (Base 50)    
Moisture  
Dew Point 75 °F    
Average Humidity 80    
Maximum Humidity 96    
Minimum Humidity 66    
Precipitation  
Precipitation 0.00 in - - ()
Sea Level Pressure  
Sea Level Pressure 30.00 in    
Wind  
Wind Speed 4 mph (SSW)    
Max Wind Speed 13 mph    
Max Gust Speed -    
Visibility 10 miles    
Events      
Averages and records for this station are not official NWS values.
T = Trace of Precipitation, MM = Missing Value Source: NWS Daily Summary

Daily Weather History Graph

Daily Weather History Graph

Search for Another Location

Airport:

Trip Planner

Search our weather history database for the weather conditions in past years. The results will help you decide how hot, cold, wet, or windy it might be!

Date:

Astronomy

Aug. 02, 2013 Rise Set
Actual Time 6:01 AM CDT 7:34 PM CDT
Civil Twilight 5:36 AM CDT 8:00 PM CDT
Nautical Twilight 5:05 AM CDT 8:31 PM CDT
Astronomical Twilight 4:32 AM CDT 9:03 PM CDT
Moon 2:25 AM CDT (8/2) 4:28 PM CDT (8/2)
Length of Visible Light 14h 24m
Length of Day
13h 32m
Waning Crescent, 15% of the Moon is Illuminated
Aug 2
Waning Crescent
Aug 6
New
Aug 14
First Quarter
Aug 20
Full
Aug 28
Last Quarter

Hourly Weather History & Observations

Time (CDT) Temp. Heat Index Dew Point Humidity Pressure Visibility Wind Dir Wind Speed Gust Speed Precip Events Conditions
12:58 AM 77.2 °F - 75.2 °F 94% 29.97 in 10.0 mi Calm Calm - N/A   Clear
1:58 AM 76.5 °F - 75.0 °F 95% 29.96 in 10.0 mi SE 2.3 mph - N/A   Scattered Clouds
2:18 AM 77.0 °F - 75.2 °F 94% 29.95 in 10.0 mi SE 2.3 mph - N/A   Mostly Cloudy
2:23 AM 77.0 °F - 75.2 °F 94% 29.95 in 10.0 mi Calm Calm - N/A   Scattered Clouds
2:58 AM 76.6 °F - 75.0 °F 95% 29.95 in 10.0 mi SE 2.3 mph - N/A   Clear
3:58 AM 75.7 °F - 74.1 °F 95% 29.95 in 10.0 mi Calm Calm - N/A   Clear
4:58 AM 75.6 °F - 74.3 °F 96% 29.96 in 10.0 mi Calm Calm - N/A   Clear
5:58 AM 75.0 °F - 73.8 °F 96% 29.97 in 10.0 mi Calm Calm - N/A   Clear
6:58 AM 76.6 °F - 75.4 °F 96% 29.99 in 9.0 mi Calm Calm - N/A   Clear
7:58 AM 82.2 °F 89.3 °F 75.6 °F 80% 30.01 in 10.0 mi Calm Calm - 0.00 in   Drizzle
8:58 AM 83.5 °F 91.2 °F 75.0 °F 76% 30.02 in 10.0 mi Variable 5.8 mph - 0.00 in   Light Drizzle
9:38 AM 86.0 °F 93.4 °F 73.4 °F 66% 30.02 in 10.0 mi SSE 8.1 mph - N/A   Light Drizzle
9:43 AM 86.0 °F 93.4 °F 73.4 °F 66% 30.02 in 10.0 mi South 8.1 mph - N/A   Scattered Clouds
9:53 AM 86.0 °F 95.1 °F 75.2 °F 70% 30.03 in 10.0 mi South 9.2 mph - N/A   Light Drizzle
9:58 AM 85.5 °F 93.8 °F 74.7 °F 70% 30.03 in 10.0 mi South 6.9 mph - N/A   Mostly Cloudy
10:13 AM 86.0 °F 93.4 °F 73.4 °F 66% 30.02 in 10.0 mi South 5.8 mph - N/A   Light Drizzle
10:58 AM 85.8 °F 94.2 °F 74.7 °F 69% 30.04 in 10.0 mi SSW 5.8 mph - N/A   Scattered Clouds
11:58 AM 86.5 °F 95.9 °F 75.4 °F 69% 30.04 in 10.0 mi SSW 9.2 mph - 0.00 in   Light Drizzle
12:58 PM 87.1 °F 97.8 °F 76.1 °F 70% 30.03 in 10.0 mi SSW 11.5 mph - 0.00 in   Light Drizzle
1:58 PM 87.1 °F 98.8 °F 77.0 °F 72% 30.01 in 10.0 mi SW 10.4 mph - N/A   Partly Cloudy
2:58 PM 87.6 °F 99.2 °F 76.8 °F 70% 30.00 in 10.0 mi SW 10.4 mph - 0.00 in   Light Drizzle
3:58 PM 88.0 °F 100.7 °F 77.5 °F 71% 29.99 in 10.0 mi SW 12.7 mph - 0.00 in   Light Drizzle
4:58 PM 84.6 °F 93.5 °F 75.9 °F 75% 29.99 in 10.0 mi SW 8.1 mph - 0.00 in   Light Drizzle
5:58 PM 84.6 °F 93.5 °F 75.9 °F 75% 29.99 in 10.0 mi WSW 9.2 mph - 0.00 in   Drizzle
6:58 PM 84.4 °F 93.9 °F 76.3 °F 77% 30.00 in 10.0 mi WSW 5.8 mph - 0.00 in   Light Drizzle
7:58 PM 82.9 °F 91.5 °F 76.6 °F 81% 30.01 in 10.0 mi SSW 5.8 mph - 0.00 in   Drizzle
8:58 PM 82.9 °F 92.1 °F 77.2 °F 83% 30.04 in 10.0 mi SSW 4.6 mph - 0.00 in   Drizzle
9:03 PM 82.4 °F 90.9 °F 77.0 °F 84% 30.03 in 10.0 mi SW 5.8 mph - N/A   Drizzle
9:58 PM 82.9 °F 90.8 °F 75.9 °F 79% 30.06 in 10.0 mi SW 5.8 mph - 0.00 in   Drizzle
10:58 PM 82.6 °F 89.9 °F 75.6 °F 79% 30.06 in 10.0 mi SW 6.9 mph - 0.00 in   Light Drizzle
11:58 PM 82.6 °F 91.1 °F 76.8 °F 83% 30.05 in 10.0 mi SW 8.1 mph - 0.00 in   Light Drizzle